Location: Casa Rossa
(45.2389°N, 12.2056°E)
Time: 03:50:04
(UTC+00:00)

ERS-2 - Pass Details

Date: 14 July 2020
Orbit: 494 x 498 km, 98.5° (Epoch: 11 August)

Event Time Altitude Azimuth Distance (km) Brightness Sun altitude
Rises 02:28:03 0° 161° (SSE) 2,568 5.5 -10.3°
Reaches altitude 10° 02:30:07 10° 159° (SSE) 1,690 4.6 -10.0°
Maximum altitude 02:33:44 76° 75° (ENE) 516 2.3 -9.6°
Drops below altitude 10° 02:37:24 10° 349° (N) 1,702 5.3 -9.1°
Sets 02:39:29 0° 348° (NNW) 2,589 6.2 -8.9°
